| time (UTC) | temp F | wind direction | speed knots | gust knots | rain 1hr in | rain 24hr in | rain mn in | humidity % | barometer mb |
| 20260504234504 | 49 | 158 | 0.0 | 0.0 | 0.00 | 0.00 | 0.00 | 58 | |
| 20260504233904 | 49 | 158 | 0.0 | 0.0 | 0.00 | 0.00 | 0.00 | 58 | |
| 20260504233304 | 49 | 158 | 0.0 | 0.0 | 0.00 | 0.00 | 0.00 | 57 | |
| 20260504232704 | 49 | 158 | 0.0 | 0.0 | 0.00 | 0.00 | 0.00 | 57 | |
| 20260504232104 | 49 | 158 | 0.0 | 0.0 | 0.00 | 0.00 | 0.00 | 57 | |
| 20260504231504 | 50 | 158 | 0.0 | 0.0 | 0.00 | 0.00 | 0.00 | 56 | |
| 20260504230904 | 50 | 158 | 0.0 | 0.0 | 0.00 | 0.00 | 0.00 | 56 | |
| 20260504230304 | 50 | 158 | 0.0 | 0.0 | 0.00 | 0.00 | 0.00 | 56 | |
| 20260504225704 | 50 | 158 | 0.0 | 0.0 | 0.00 | 0.00 | 0.00 | 56 | |
| 20260504225104 | 50 | 158 | 0.0 | 0.0 | 0.00 | 0.00 | 0.00 | 56 | |
| 20260504224504 | 50 | 158 | 0.0 | 0.0 | 0.00 | 0.00 | 0.00 | 56 | |
| 20260504223904 | 50 | 158 | 0.0 | 0.0 | 0.00 | 0.00 | 0.00 | 56 | |
| 20260504223304 | 50 | 150 | 2.6 | 3.5 | 0.00 | 0.00 | 0.00 | 56 | |
| 20260504222704 | 50 | 168 | 0.0 | 0.0 | 0.00 | 0.00 | 0.00 | 56 | |
| 20260504222104 | 50 | 168 | 0.0 | 0.0 | 0.00 | 0.00 | 0.00 | 56 | |
| 20260504221504 | 50 | 168 | 0.0 | 0.0 | 0.00 | 0.00 | 0.00 | 57 | |
| 20260504220904 | 50 | 168 | 0.0 | 0.0 | 0.00 | 0.00 | 0.00 | 57 | |
| 20260504220304 | 50 | 168 | 0.0 | 0.0 | 0.00 | 0.00 | 0.00 | 57 | |
| 20260504215704 | 50 | 168 | 0.0 | 0.0 | 0.00 | 0.00 | 0.00 | 57 | |
| 20260504215104 | 51 | 168 | 0.0 | 0.0 | 0.00 | 0.00 | 0.00 | 58 | |
| 20260504214504 | 51 | 168 | 0.0 | 0.0 | 0.00 | 0.00 | 0.00 | 58 | |
| 20260504213904 | 51 | 168 | 0.0 | 0.0 | 0.00 | 0.00 | 0.00 | 58 | |
| 20260504213304 | 51 | 168 | 0.0 | 0.0 | 0.00 | 0.00 | 0.00 | 58 | |
| 20260504212704 | 51 | 168 | 0.0 | 0.0 | 0.00 | 0.00 | 0.00 | 58 | |
| 20260504212104 | 51 | 168 | 0.0 | 0.0 | 0.00 | 0.00 | 0.00 | 58 | |
| 20260504211504 | 51 | 168 | 0.0 | 0.0 | 0.00 | 0.00 | 0.00 | 58 | |
| 20260504210904 | 51 | 168 | 0.0 | 0.0 | 0.00 | 0.00 | 0.00 | 57 | |
| 20260504210304 | 51 | 168 | 0.0 | 0.0 | 0.00 | 0.00 | 0.00 | 57 | |
| 20260504205704 | 51 | 168 | 0.0 | 0.0 | 0.00 | 0.00 | 0.00 | 57 | |
| 20260504205104 | 51 | 168 | 0.0 | 0.0 | 0.00 | 0.00 | 0.00 | 56 | |
| 20260504204504 | 52 | 168 | 0.0 | 0.0 | 0.00 | 0.00 | 0.00 | 56 | |
| 20260504203904 | 52 | 8 | 0.0 | 0.0 | 0.00 | 0.00 | 0.00 | 56 | |
| 20260504203304 | 52 | 8 | 0.0 | 0.0 | 0.00 | 0.00 | 0.00 | 55 | |
| 20260504202704 | 52 | 8 | 0.0 | 0.0 | 0.00 | 0.00 | 0.00 | 55 | |
| 20260504202104 | 52 | 8 | 0.0 | 0.0 | 0.00 | 0.00 | 0.00 | 55 | |
| 20260504201504 | 52 | 8 | 0.0 | 0.0 | 0.00 | 0.00 | 0.00 | 55 | |
| 20260504200904 | 52 | 8 | 0.0 | 0.0 | 0.00 | 0.00 | 0.00 | 55 | |
| 20260504200304 | 52 | 8 | 0.0 | 0.0 | 0.00 | 0.00 | 0.00 | 55 | |
| 20260504195704 | 53 | 8 | 0.0 | 0.0 | 0.00 | 0.00 | 0.00 | 55 | |
| 20260504195104 | 53 | 8 | 0.0 | 0.0 | 0.00 | 0.00 | 0.00 | 55 | |
| 20260504194504 | 53 | 8 | 0.0 | 0.0 | 0.00 | 0.00 | 0.00 | 55 | |
| 20260504193904 | 53 | 8 | 0.0 | 0.0 | 0.00 | 0.00 | 0.00 | 55 | |
| 20260504193304 | 53 | 8 | 0.0 | 0.0 | 0.00 | 0.00 | 0.00 | 54 | |
| 20260504192704 | 53 | 8 | 0.0 | 0.0 | 0.00 | 0.00 | 0.00 | 54 | |
| 20260504192104 | 53 | 8 | 0.0 | 0.0 | 0.00 | 0.00 | 0.00 | 54 | |
| 20260504191504 | 54 | 8 | 0.0 | 0.0 | 0.00 | 0.00 | 0.00 | 54 | |
| 20260504190904 | 54 | 8 | 0.0 | 0.0 | 0.00 | 0.00 | 0.00 | 53 | |
| 20260504190304 | 54 | 8 | 0.0 | 0.0 | 0.00 | 0.00 | 0.00 | 54 | |
| 20260504185704 | 54 | 8 | 0.0 | 0.0 | 0.00 | 0.00 | 0.00 | 53 | |
| 20260504185104 | 55 | 8 | 0.0 | 0.0 | 0.00 | 0.00 | 0.00 | 53 | |
| 20260504184504 | 55 | 8 | 0.0 | 0.0 | 0.00 | 0.00 | 0.00 | 52 | |
| 20260504183904 | 55 | 8 | 0.0 | 0.0 | 0.00 | 0.00 | 0.00 | 51 | |
| 20260504183304 | 55 | 8 | 0.0 | 0.0 | 0.00 | 0.00 | 0.00 | 51 | |
| 20260504182704 | 55 | 8 | 0.0 | 0.0 | 0.00 | 0.00 | 0.00 | 51 | |
| 20260504182104 | 56 | 8 | 0.0 | 0.0 | 0.00 | 0.00 | 0.00 | 51 | |
| 20260504181504 | 56 | 8 | 0.0 | 0.0 | 0.00 | 0.00 | 0.00 | 50 | |
| 20260504180904 | 57 | 8 | 0.0 | 0.0 | 0.00 | 0.00 | 0.00 | 50 | |
| 20260504180304 | 57 | 8 | 0.0 | 0.0 | 0.00 | 0.00 | 0.00 | 49 | |
| 20260504175704 | 57 | 8 | 0.0 | 0.0 | 0.00 | 0.00 | 0.00 | 49 | |
| 20260504175104 | 58 | 8 | 0.0 | 0.0 | 0.00 | 0.00 | 0.00 | 49 | |
| 20260504174504 | 58 | 8 | 0.0 | 0.0 | 0.00 | 0.00 | 0.00 | 48 | |
| 20260504173905 | 59 | 8 | 0.0 | 0.0 | 0.00 | 0.00 | 0.00 | 48 | |
| 20260504173305 | 60 | 8 | 0.0 | 0.0 | 0.00 | 0.00 | 0.00 | 47 | |
| 20260504172705 | 61 | 8 | 0.0 | 0.0 | 0.00 | 0.00 | 0.00 | 47 | |
| 20260504172105 | 61 | 8 | 0.0 | 0.0 | 0.00 | 0.00 | 0.00 | 46 | |
| 20260504171505 | 62 | 8 | 0.0 | 0.0 | 0.00 | 0.00 | 0.00 | 44 | |
| 20260504170905 | 63 | 8 | 0.0 | 0.0 | 0.00 | 0.00 | 0.00 | 43 | |
| 20260504170305 | 64 | 8 | 0.0 | 0.0 | 0.00 | 0.00 | 0.00 | 41 | |
| 20260504160305 | 76 | 8 | 0.0 | 0.0 | 0.00 | 0.00 | 0.00 | 22 | |
| 20260504150905 | 72 | 355 | 2.6 | 6.1 | 0.00 | 0.00 | 0.00 | 21 | |
| 20260504150305 | 72 | 300 | 0.0 | 6.1 | 0.00 | 0.00 | 0.00 | 22 | |
| 20260504140905 | 68 | 277 | 0.0 | 7.8 | 0.00 | 0.00 | 0.00 | 26 | |
| 20260504140305 | 68 | 312 | 0.0 | 12.2 | 0.00 | 0.00 | 0.00 | 24 | |
| 20260504130305 | 61 | 12 | 4.3 | 7.0 | 0.00 | 0.00 | 0.00 | 31 | |
| 20260504120305 | 59 | 52 | 0.0 | 9.6 | 0.00 | 0.00 | 0.00 | 39 | |
| 20260504110305 | 57 | 11 | 3.5 | 6.1 | 0.00 | 0.00 | 0.00 | 41 | |
| 20260504100305 | 56 | 271 | 0.0 | 5.2 | 0.00 | 0.00 | 0.00 | 48 | |
| 20260504081707 | 52 | 358 | 0.0 | 8.7 | 0.00 | 0.07 | 0.00 | 58 | |
| 20260504081506 | 52 | 26 | 0.0 | 8.7 | 0.00 | 0.07 | 0.00 | 58 | |
| 20260504080906 | 52 | 324 | 0.0 | 5.2 | 0.00 | 0.07 | 0.00 | 60 | |
| 20260504080306 | 51 | 267 | 0.0 | 7.8 | 0.00 | 0.07 | 0.00 | 59 | |
| 20260504070306 | 49 | 286 | 4.3 | 7.0 | 0.00 | 0.07 | 0.00 | 62 | |
| 20260504050306 | 44 | 286 | 0.0 | 3.5 | 0.00 | 0.08 | 0.00 | 70 | |
| 20260504045706 | 44 | 270 | 0.0 | 0.0 | 0.00 | 0.08 | 0.00 | 68 | |
| 20260504045106 | 44 | 270 | 0.0 | 9.6 | 0.00 | 0.08 | 0.00 | 68 | |
| 20260504044506 | 44 | 313 | 0.0 | 7.0 | 0.00 | 0.08 | 0.00 | 68 | |
| 20260504043906 | 43 | 292 | 3.5 | 5.2 | 0.00 | 0.08 | 0.00 | 67 | |
| 20260504043707 | 43 | 320 | 0.0 | 5.2 | 0.00 | 0.08 | 0.00 | 69 | |
| 20260504043306 | 43 | 5 | 0.0 | 6.1 | 0.00 | 0.08 | 0.00 | 69 | |
| 20260504042706 | 42 | 241 | 0.0 | 0.0 | 0.00 | 0.08 | 0.00 | 70 | |
| 20260504042106 | 42 | 241 | 0.0 | 0.0 | 0.00 | 0.08 | 0.00 | 72 | |
| 20260504041707 | 41 | 241 | 0.0 | 4.3 | 0.00 | 0.08 | 0.00 | 74 | |
| 20260504041506 | 41 | 99 | 2.6 | 4.3 | 0.00 | 0.08 | 0.00 | 76 | |
| 20260504040906 | 40 | 178 | 0.0 | 0.0 | 0.00 | 0.08 | 0.00 | 77 | |
| 20260504040306 | 40 | 178 | 0.0 | 0.0 | 0.00 | 0.08 | 0.00 | 80 | |
| 20260504035706 | 40 | 178 | 0.0 | 0.0 | 0.00 | 0.08 | 0.00 | 81 | |
| 20260504035106 | 40 | 178 | 0.0 | 0.0 | 0.00 | 0.08 | 0.00 | 82 | |
| 20260504034506 | 40 | 178 | 0.0 | 0.0 | 0.00 | 0.08 | 0.00 | 83 | |
| 20260504033906 | 40 | 178 | 0.0 | 0.0 | 0.00 | 0.08 | 0.00 | 82 | |
| 20260504033707 | 40 | 178 | 0.0 | 0.0 | 0.00 | 0.08 | 0.00 | 82 | |
| 20260504033306 | 40 | 178 | 0.0 | 0.0 | 0.00 | 0.08 | 0.00 | 82 | |
| 20260504032706 | 40 | 178 | 0.0 | 0.0 | 0.00 | 0.08 | 0.00 | 82 | |
| 20260504032106 | 40 | 178 | 0.0 | 2.6 | 0.00 | 0.08 | 0.00 | 81 | |
| 20260504031713 | 40 | 157 | 0.0 | 0.0 | 0.00 | 0.08 | 0.00 | 82 | |
| 20260504031506 | 40 | 157 | 0.0 | 0.0 | 0.00 | 0.08 | 0.00 | 82 | |
| 20260504030906 | 40 | 157 | 0.0 | 0.0 | 0.00 | 0.08 | 0.00 | 82 | |
| 20260504030407 | 40 | 157 | 0.0 | 0.0 | 0.00 | 0.08 | 0.00 | 82 | |
| 20260504030306 | 40 | 157 | 0.0 | 0.0 | 0.00 | 0.08 | 0.00 | 82 | |
| 20260504025706 | 40 | 157 | 0.0 | 0.0 | 0.00 | 0.08 | 0.00 | 82 | |
| 20260504025106 | 40 | 157 | 0.0 | 0.0 | 0.00 | 0.08 | 0.00 | 82 | |
| 20260504024506 | 40 | 157 | 0.0 | 0.0 | 0.00 | 0.08 | 0.00 | 82 | |
| 20260504023906 | 40 | 157 | 0.0 | 0.0 | 0.00 | 0.08 | 0.00 | 82 | |
| 20260504023707 | 40 | 157 | 0.0 | 0.0 | 0.00 | 0.08 | 0.00 | 82 | |
| 20260504023306 | 40 | 157 | 0.0 | 0.0 | 0.00 | 0.08 | 0.00 | 82 | |
| 20260504022706 | 40 | 157 | 0.0 | 0.0 | 0.00 | 0.08 | 0.00 | 82 | |
| 20260504022233 | 40 | 157 | 0.0 | 0.0 | 0.00 | 0.08 | 0.00 | 82 | |
| 20260504022106 | 40 | 157 | 0.0 | 0.0 | 0.00 | 0.08 | 0.00 | 82 | |
| 20260504021506 | 40 | 157 | 0.0 | 0.0 | 0.00 | 0.08 | 0.00 | 82 | |
| 20260504020906 | 40 | 157 | 0.0 | 0.0 | 0.00 | 0.08 | 0.00 | 82 | |
| 20260504020306 | 40 | 157 | 0.0 | 0.0 | 0.00 | 0.08 | 0.00 | 81 | |
| 20260504020115 | 40 | 157 | 0.0 | 4.3 | 0.00 | 0.08 | 0.00 | 82 | |
| 20260504015706 | 40 | 157 | 0.0 | 4.3 | 0.00 | 0.08 | 0.00 | 82 | |
| 20260504015106 | 40 | 170 | 0.0 | 0.0 | 0.00 | 0.08 | 0.00 | 82 | |
| 20260504014506 | 40 | 170 | 0.0 | 0.0 | 0.00 | 0.08 | 0.00 | 81 | |
| 20260504013906 | 40 | 170 | 0.0 | 0.0 | 0.00 | 0.08 | 0.00 | 81 | |
| 20260504013707 | 40 | 170 | 0.0 | 0.0 | 0.00 | 0.08 | 0.00 | 81 | |
| 20260504013306 | 40 | 170 | 0.0 | 0.0 | 0.00 | 0.08 | 0.00 | 81 | |
| 20260504012706 | 40 | 170 | 0.0 | 3.5 | 0.00 | 0.08 | 0.00 | 81 | |
| 20260504012106 | 40 | 164 | 0.0 | 0.0 | 0.00 | 0.08 | 0.00 | 81 | |
| 20260504011707 | 40 | 164 | 0.0 | 4.3 | 0.00 | 0.08 | 0.00 | 81 | |
| 20260504011506 | 40 | 163 | 2.6 | 4.3 | 0.00 | 0.08 | 0.00 | 81 | |
| 20260504010906 | 40 | 133 | 3.5 | 3.5 | 0.00 | 0.08 | 0.00 | 81 | |
| 20260504010306 | 40 | 170 | 0.0 | 0.0 | 0.00 | 0.08 | 0.00 | 81 | |
| 20260504005706 | 40 | 170 | 0.0 | 0.0 | 0.00 | 0.08 | 0.00 | 80 | |
| 20260504005106 | 40 | 170 | 0.0 | 0.0 | 0.00 | 0.08 | 0.00 | 81 | |
| 20260504004506 | 40 | 170 | 0.0 | 2.6 | 0.00 | 0.08 | 0.00 | 80 | |
| 20260504003906 | 40 | 181 | 1.7 | 4.3 | 0.00 | 0.08 | 0.00 | 80 | |
| 20260504003306 | 40 | 171 | 0.0 | 0.0 | 0.00 | 0.08 | 0.00 | 80 | |
| 20260504002706 | 40 | 171 | 0.0 | 2.6 | 0.00 | 0.08 | 0.00 | 80 | |
| 20260504002106 | 41 | 170 | 0.0 | 0.0 | 0.00 | 0.08 | 0.00 | 80 | |
| 20260504001708 | 41 | 170 | 0.0 | 0.0 | 0.00 | 0.08 | 0.00 | 80 | |
| 20260504001506 | 41 | 170 | 0.0 | 0.0 | 0.00 | 0.08 | 0.00 | 80 | |
| 20260504000906 | 41 | 170 | 0.0 | 0.0 | 0.00 | 0.08 | 0.00 | 80 | |
| 20260504000306 | 41 | 170 | 0.0 | 0.0 | 0.00 | 0.08 | 0.00 | 80 | |
| 20260503235706 | 41 | 170 | 0.0 | 0.0 | 0.00 | 0.08 | 0.00 | 80 | |
| 20260503235106 | 41 | 170 | 0.0 | 0.0 | 0.00 | 0.08 | 0.00 | 79 |